FW1313 Weather Reports


Display with metric or nautical units.
time (UTC)temp
F
wind
direction
speed
MPH
gust
MPH
rain 1hr
in
rain 24hr
in
rain mn
in
humidity
%
barometer
mb
20260905230408 72 165 0.0 1.0 0.00 0.00 0.00 32 1018.2
20260905223408 72 191 0.0 2.0 0.00 0.00 0.00 33 1018.1
20260905220408 72 203 0.0 2.0 0.00 0.00 0.00 33 1018.0
20260905213408 71 180 0.0 2.0 0.00 0.00 0.00 32 1017.9
20260905210408 70 162 0.0 2.0 0.00 0.00 0.00 32 1017.7
20260905203408 72 211 0.0 1.0 0.00 0.00 0.00 31 1017.4
20260905200408 73 146 0.0 1.0 0.00 0.00 0.00 32 1017.2
20260905193408 72 180 0.0 3.0 0.00 0.00 0.00 36 1017.1
20260905190408 72 223 0.0 1.0 0.00 0.00 0.00 33 1017.0
20260905183408 72 205 0.0 1.0 0.00 0.00 0.00 28 1017.0
20260905180408 71 179 0.0 0.0 0.00 0.00 0.00 24 1016.6
20260905173408 69 128 0.0 0.0 0.00 0.00 0.00 27 1016.1
20260905170411 66 153 0.0 0.0 0.00 0.00 0.00 29 1015.8
20260905163411 63 129 0.0 0.0 0.00 0.00 0.00 33 1015.4
20260905160408 62 124 0.0 0.0 0.00 0.00 0.00 31 1015.0
20260905153408 60 94 0.0 0.0 0.00 0.00 0.00 31 1014.7
20260905150408 58 97 0.0 0.0 0.00 0.00 0.00 33 1014.4
20260905143408 56 94 0.0 1.0 0.00 0.00 0.00 38 1014.0
20260905140408 55 96 0.0 1.0 0.00 0.00 0.00 44 1013.9
20260905133408 56 135 0.0 1.0 0.00 0.00 0.00 40 1013.5
20260905130408 55 98 0.0 1.0 0.00 0.00 0.00 45 1013.2
20260905123408 54 94 0.0 1.0 0.00 0.00 0.00 47 1013.3
20260905120408 54 94 0.0 1.0 0.00 0.00 0.00 48 1013.5
20260905113408 54 101 0.0 1.0 0.00 0.00 0.00 48 1013.5
20260905110411 54 97 0.0 0.0 0.00 0.00 0.00 48 1013.9
20260905103408 54 96 0.0 1.0 0.00 0.00 0.00 48 1014.2
20260905100408 53 103 0.0 0.0 0.00 0.00 0.00 50 1014.4
20260905093408 54 106 0.0 1.0 0.00 0.00 0.00 49 1014.7
20260905090408 54 103 0.0 1.0 0.00 0.00 0.00 51 1014.9
20260905083408 55 123 0.0 1.0 0.00 0.00 0.00 51 1015.4
20260905080408 55 122 0.0 1.0 0.00 0.00 0.00 51 1015.9
20260905073408 55 102 0.0 1.0 0.00 0.00 0.00 53 1016.0
20260905070408 54 94 0.0 1.0 0.00 0.00 0.00 60 1016.2
20260905063408 54 106 0.0 1.0 0.00 0.00 0.00 69 1016.4
20260905060411 55 104 0.0 1.0 0.00 0.00 0.00 76 1016.6
20260905053408 55 106 0.0 1.0 0.00 0.00 0.00 74 1016.8
20260905050408 55 91 0.0 1.0 0.00 0.00 0.00 74 1017.1
20260905043408 56 110 0.0 1.0 0.00 0.00 0.00 72 1017.1
20260905040408 56 108 0.0 0.0 0.00 0.00 0.00 71 1017.1
20260905033408 55 102 0.0 0.0 0.00 0.00 0.00 76 1016.9
20260905030408 55 121 0.0 0.0 0.00 0.00 0.00 75 1016.5
20260905023411 56 159 0.0 0.0 0.00 0.00 0.00 69 1016.5
20260905020408 59 174 0.0 0.0 0.00 0.00 0.00 63 1016.6
20260905013408 61 183 0.0 0.0 0.00 0.00 0.00 56 1016.6
20260905010408 63 226 0.0 0.0 0.00 0.00 0.00 52 1016.7
20260905003408 64 225 0.0 0.0 0.00 0.00 0.00 46 1016.7
20260905000410 65 172 0.0 1.0 0.00 0.00 0.00 40 1016.6
20260904233408 66 176 0.0 1.0 0.00 0.00 0.00 37 1016.4